Theta_e
322 322 321 321 321 321 320 319 319 319 319 320 319 319 320 320 320 319 319 313 306 303 302 302 301 304 308 313 314 313 309 309 309 310 312 312 312 312 313 312 314 314 314 314 314 313 312
322 322 322 322 321 321 321 320 319 319 319 318 319 320 319 319 320 320 317 305 303 304 304 303 302 305 313 311 311 313 310 308 310 311 311 311 311 311 313 312 313 313 315 314 313 313 312
324 323 321 319 319 321 320 319 317 316 316 317 317 317 318 317 318 319 312 307 306 306 306 305 303 306 311 309 310 310 308 309 311 310 311 312 312 313 312 314 313 313 314 312 312 312 312
321 319 318 315 313 313 314 316 316 315 313 315 316 316 315 316 318 317 312 311 308 307 305 304 304 309 307 310 311 311 310 310 310 310 310 312 312 312 314 313 313 314 313 311 311 312 312
310 307 305 303 302 302 302 303 304 306 308 311 313 314 314 315 317 314 315 312 309 308 306 305 307 309 308 310 309 310 310 310 310 310 311 310 311 312 313 311 308 309 306 310 311 311 312
300 300 301 301 301 301 301 301 301 302 305 308 310 307 312 313 314 314 312 315 308 310 309 310 310 308 307 308 310 310 309 310 309 310 311 309 308 310 309 307 305 305 311 309 310 312 311
299 300 300 299 299 299 300 300 301 302 305 306 307 305 306 311 314 314 310 306 303 306 304 308 308 305 309 310 310 309 309 310 309 309 308 310 308 309 309 310 306 305 308 310 309 310 312
304 304 306 307 306 304 302 302 301 301 301 302 305 307 306 310 314 314 310 305 304 303 307 306 305 305 306 309 309 309 309 307 308 308 308 309 310 306 308 310 311 309 309 308 308 308 311
305 306 306 306 307 307 306 305 304 303 302 301 301 303 306 309 314 314 305 304 306 308 307 307 308 308 308 308 308 307 307 308 308 308 307 307 308 308 309 309 310 308 309 309 309 307 309
306 306 307 307 307 306 306 306 306 305 304 302 301 300 301 307 315 315 304 304 306 308 308 311 307 310 308 308 309 308 308 309 308 308 307 307 307 308 308 309 308 308 306 307 307 308 309
306 307 307 306 306 306 305 306 306 305 304 303 302 302 301 305 313 313 305 312 306 307 311 310 309 307 308 308 308 309 307 308 309 309 307 307 307 308 309 309 307 308 307 306 306 306 306
306 306 306 306 306 306 305 305 304 304 302 300 300 301 302 302 309 313 312 314 307 311 310 313 308 310 309 309 309 307 307 307 307 308 306 307 306 308 307 308 306 307 307 305 304 304 307
304 305 305 305 305 305 305 305 305 303 300 300 299 300 302 304 309 311 313 304 307 311 307 311 310 309 309 309 310 307 308 307 307 307 307 307 308 307 307 308 307 307 306 309 308 308 309
304 304 304 304 304 304 305 305 305 304 301 300 300 301 302 307 307 309 310 304 308 305 310 309 310 310 310 309 309 309 307 307 306 306 306 307 310 308 307 308 307 306 305 309 312 311 309
303 302 302 303 304 304 304 304 304 304 302 300 300 303 305 308 308 309 305 308 301 305 309 309 309 311 312 309 308 308 308 307 306 305 308 307 308 306 307 307 307 307 307 306 306 305 306
301 301 301 301 302 303 303 302 303 303 303 300 304 304 305 306 307 305 308 308 308 308 308 308 310 310 312 310 310 311 311 309 308 304 305 306 311 307 305 305 306 307 306 308 306 310 312
301 301 301 301 301 302 302 302 302 303 303 301 304 304 305 305 305 304 305 306 307 307 308 309 310 310 311 312 312 312 311 309 306 307 307 309 308 307 305 307 307 306 306 306 307 307 311
302 302 302 301 301 301 301 301 302 301 302 301 302 300 305 304 304 302 303 306 305 308 308 308 309 309 310 310 309 309 310 308 304 305 310 309 309 311 310 306 304 304 305 305 309 310 307
302 302 302 302 301 300 300 301 301 300 302 302 300 300 304 304 304 301 303 306 306 306 306 308 309 309 308 309 309 308 308 305 304 306 307 307 306 309 304 305 303 305 304 309 310 311 311
302 302 302 302 301 299 300 300 300 300 300 302 300 301 299 301 303 304 303 303 304 304 306 308 308 308 308 307 307 307 308 307 305 304 307 306 306 307 307 306 306 306 305 305 307 310 308
302 301 302 302 301 301 301 299 299 299 299 301 300 299 298 297 303 303 303 301 304 304 305 307 307 307 307 307 307 306 306 305 304 304 303 303 303 303 305 304 304 305 305 306 306 306 308
301 302 301 301 300 301 300 300 298 298 299 301 301 302 298 300 301 300 301 303 305 303 305 306 307 305 305 307 306 308 307 304 303 302 303 301 303 303 304 303 302 304 303 303 304 306 306
301 301 301 301 301 300 300 299 298 297 298 300 300 300 301 302 298 297 296 300 302 303 302 304 304 306 305 303 303 302 301 301 300 300 299 304 304 304 303 300 301 299 293 295 297 292 291
300 300 300 300 301 300 299 299 298 298 298 298 299 300 301 302 303 302 302 301 302 302 303 302 301 301 297 297 298 299 298 299 298 299 300 301 301 303 302 294 300 293 292 292 293 289 288
299 300 300 300 300 300 299 298 299 298 298 299 298 299 300 301 301 299 300 301 300 298 298 299 299 298 298 299 300 294 293 292 291 298 298 299 300 303 303 302 298 294 291 290 290 287 286
299 300 300 300 299 299 298 298 298 299 298 298 299 298 299 299 301 300 300 300 299 299 298 298 295 294 296 300 300 296 297 296 295 296 294 298 300 301 295 302 302 287 287 289 289 288 285
298 298 299 299 298 298 298 298 298 298 298 298 298 298 298 299 299 301 302 301 299 299 300 298 297 296 296 300 302 299 296 292 296 296 298 297 296 299 299 302 293 284 284 286 294 290 284
297 297 297 298 299 298 298 297 297 298 298 298 298 298 299 299 298 299 298 300 299 300 300 296 298 295 296 298 299 295 293 297 299 296 293 292 293 291 293 298 295 282 284 285 282 283 283
297 297 297 298 298 298 297 297 297 297 298 297 298 298 299 298 296 294 294 294 295 296 298 297 296 294 296 296 292 295 299 287 288 291 287 293 283 289 288 286 282 281 281 280 279 281 282
Wind_Speed
16 17 18 19 19 20 20 22 22 23 24 24 24 24 24 25 26 27 29 27 25 23 21 19 15 11 4 1 9 6 7 4 5 5 6 5 5 5 5 4 2 5 3 4 3 5 5
15 15 16 16 16 17 18 19 20 22 23 24 25 25 26 28 29 30 30 27 26 25 24 20 12 7 1 4 2 5 5 5 5 5 4 4 5 5 3 4 5 4 3 4 5 4 4
12 11 13 14 14 13 14 16 16 18 20 23 25 27 28 29 31 33 30 30 28 28 23 15 9 3 2 12 4 5 4 3 5 5 2 3 2 2 1 3 1 2 4 4 7 6 6
11 13 14 15 15 16 16 16 16 17 18 18 20 24 26 27 29 31 30 30 31 18 12 5 6 5 7 4 6 6 5 5 4 5 4 4 2 2 2 1 4 2 1 3 2 8 5
13 14 15 15 16 16 17 17 18 18 19 20 21 23 24 26 28 28 28 29 19 8 5 2 5 4 8 1 3 6 6 3 4 2 3 2 1 4 2 4 4 3 5 6 8 10 4
13 15 16 16 17 18 18 18 18 18 18 19 21 23 23 24 27 24 26 23 12 3 2 1 0 1 4 2 3 3 5 4 1 1 3 1 3 2 1 4 8 8 6 6 7 5 3
13 15 16 17 18 18 18 19 19 20 20 20 21 24 25 22 25 20 24 8 8 4 5 6 5 5 2 3 4 4 4 4 1 2 4 3 3 10 16 14 3 4 5 6 5 6 6
13 14 15 16 16 16 17 18 19 20 21 22 22 23 24 22 21 14 14 6 0 3 11 10 11 7 15 6 2 4 9 5 4 6 2 2 13 8 3 6 8 7 5 13 8 6 8
13 14 15 15 16 17 18 18 18 19 20 22 23 23 24 22 15 8 7 4 3 2 3 7 4 2 1 7 5 4 8 5 5 5 7 8 10 3 3 5 8 5 9 7 10 5 5
13 13 13 14 14 13 15 16 17 19 20 21 22 22 23 22 3 13 1 8 5 2 3 7 2 1 1 2 2 2 8 4 3 6 6 7 7 11 7 10 8 6 7 11 8 3 12
13 14 14 15 15 15 14 15 16 18 19 20 21 22 21 15 11 6 6 16 4 2 6 1 1 1 1 3 4 1 0 1 5 4 4 8 3 3 6 9 6 10 4 8 5 5 4
15 15 15 15 15 16 16 16 16 17 20 21 21 21 20 11 10 9 11 15 2 4 8 2 2 1 1 2 2 2 1 1 1 2 3 10 1 3 6 3 6 1 1 4 4 2 7
16 17 17 17 18 17 18 18 18 19 21 22 22 22 20 12 4 10 16 3 3 4 5 2 2 3 2 3 3 4 3 2 4 2 3 4 5 4 4 3 3 3 5 4 3 1 9
16 17 18 18 18 19 19 18 18 20 21 23 24 23 14 10 11 11 6 4 5 3 6 4 7 5 4 1 2 3 3 3 5 1 1 3 6 3 2 5 4 6 8 5 6 4 6
16 17 19 19 18 18 18 18 18 19 21 22 24 18 8 4 5 1 3 2 5 3 4 7 4 3 3 2 5 5 3 3 2 5 4 3 5 1 4 1 6 1 5 6 4 5 5
17 18 19 18 18 17 18 18 18 17 18 20 17 11 9 5 2 1 2 6 4 1 4 4 1 3 3 4 5 5 3 1 4 3 2 2 7 4 4 1 2 4 3 2 1 4 12
18 18 18 19 18 18 17 17 17 16 15 17 6 4 3 4 1 3 3 6 3 5 3 2 1 4 2 4 3 2 5 6 4 3 2 1 4 3 3 3 7 1 3 4 3 4 7
19 18 19 18 17 18 17 16 17 16 14 8 3 2 3 2 2 1 3 3 3 3 1 4 3 6 6 6 4 6 6 8 4 3 4 3 2 5 8 12 9 5 4 2 6 13 6
20 20 20 19 17 17 17 16 16 14 10 6 2 3 2 2 3 3 4 4 3 4 6 3 3 3 1 4 3 4 4 2 2 3 3 4 2 6 8 3 3 2 2 1 7 5 14
22 22 21 20 19 18 17 16 15 14 11 4 1 3 3 1 1 3 4 5 4 4 5 4 4 3 3 4 6 4 3 2 2 4 5 5 3 6 13 10 6 14 18 18 11 9 16
24 23 23 22 20 19 17 17 15 14 11 5 2 4 4 2 4 6 2 2 3 4 3 3 2 5 3 3 3 6 4 4 5 6 2 6 6 7 13 14 13 17 18 18 20 23 14
26 25 24 24 22 19 19 18 16 14 11 7 3 3 1 2 2 5 5 4 4 6 4 4 3 7 4 5 6 3 4 4 7 4 6 3 6 4 14 15 14 16 17 19 19 23 22
29 24 25 25 23 22 21 21 18 15 11 6 5 5 1 3 3 3 5 6 6 4 7 10 5 5 7 13 8 6 4 7 7 5 5 4 3 2 8 6 3 7 4 3 3 7 5
29 27 27 27 27 25 25 23 23 19 16 14 11 4 4 5 7 7 5 6 8 8 7 6 5 3 5 4 3 5 8 12 15 13 9 10 7 3 6 3 2 3 1 3 2 6 6
30 30 28 28 29 26 27 28 26 23 21 19 20 9 4 5 7 8 13 9 5 5 4 6 10 3 1 2 2 4 4 5 2 3 8 12 6 3 2 2 2 1 5 5 3 3 10
31 29 29 28 30 30 30 30 29 27 24 22 24 23 8 3 9 10 7 9 5 4 7 5 1 1 1 3 3 4 4 3 4 2 3 1 3 1 1 3 4 1 8 5 4 4 15
30 28 29 28 30 29 30 28 27 28 26 23 20 21 12 7 5 7 5 5 4 4 3 2 3 4 3 3 3 3 4 3 2 3 4 2 0 5 7 5 2 6 14 8 1 5 17
29 29 28 27 28 28 30 25 23 24 24 22 19 21 20 3 5 6 6 5 2 3 5 3 1 2 2 5 3 4 4 4 2 1 4 4 3 3 1 4 5 15 3 5 6 8 11
26 26 26 25 26 28 25 26 26 23 24 20 23 24 33 5 1 5 3 1 2 3 2 3 3 2 3 2 2 2 3 1 3 3 5 1 1 1 2 2 4 6 6 5 7 10 11
Wind_Direction
31 31 24 20 15 13 13 13 10 9 8 5 2 0 357 353 350 347 341 335 328 323 318 313 313 317 338 320 252 207 193 210 213 205 217 189 170 176 195 205 239 222 241 221 194 216 230
16 17 15 11 8 8 7 6 5 2 358 356 356 353 351 349 345 343 340 336 330 321 314 307 295 293 178 254 238 193 206 210 215 220 233 213 210 188 226 236 180 190 228 256 248 244 252
29 15 9 9 6 5 359 358 354 349 348 345 344 345 345 343 342 340 337 334 326 317 310 301 266 229 271 243 230 209 207 225 221 228 227 246 232 210 198 282 255 167 281 304 223 206 233
2 1 360 360 1 359 358 353 350 348 346 342 337 338 342 343 342 340 338 335 324 320 322 311 180 151 244 270 231 235 244 257 222 220 244 253 231 221 215 223 8 303 17 289 275 154 233
3 360 359 357 355 354 351 348 347 345 345 342 340 337 339 343 343 342 339 333 329 335 356 111 140 160 265 270 235 250 211 251 210 217 242 262 160 205 114 108 2 312 249 224 309 197 134
356 353 351 350 349 348 346 345 343 341 342 341 335 331 336 344 343 342 343 331 323 337 14 106 223 33 278 249 189 180 193 187 157 118 3 13 35 196 79 131 221 206 220 237 231 212 187
348 347 346 345 345 344 342 340 339 339 339 339 337 336 338 338 341 345 354 347 10 340 11 222 219 241 225 187 180 183 175 149 123 117 203 219 169 217 209 208 231 193 211 236 230 191 171
2 358 353 349 347 343 340 340 339 339 339 337 337 336 334 336 339 348 16 61 118 274 305 239 246 261 265 254 287 233 171 158 156 210 183 6 246 241 237 216 243 260 277 265 297 239 195
3 1 359 354 349 346 344 343 342 341 340 338 335 332 333 331 331 348 51 69 355 283 282 303 227 204 256 166 209 239 155 164 181 201 193 187 226 76 202 248 236 227 237 259 252 305 239
347 348 347 349 348 345 342 346 346 345 345 342 337 334 334 334 337 339 343 3 325 239 352 276 218 329 350 103 249 292 185 177 208 225 214 227 264 252 220 245 182 250 222 246 263 275 274
332 332 333 337 341 345 346 343 341 341 341 344 341 338 337 341 300 325 321 337 325 162 334 232 225 322 136 193 146 252 335 97 223 210 139 247 259 257 211 230 160 243 206 233 235 234 324
330 329 329 330 330 332 337 338 338 337 337 338 333 332 332 332 301 280 314 330 147 51 252 250 138 186 216 220 216 141 147 34 198 248 210 238 246 266 218 220 177 171 72 23 43 103 265
333 332 329 326 325 327 327 328 330 333 337 338 330 326 319 300 252 311 325 360 42 172 328 9 32 346 304 237 256 181 168 200 212 320 275 330 233 254 182 258 14 121 78 310 300 289 248
334 334 333 332 332 327 322 320 319 325 331 335 326 326 320 302 292 287 329 61 207 227 266 18 341 315 233 277 259 163 134 271 256 142 337 214 324 169 165 183 199 182 171 185 257 229 271
329 329 329 327 330 332 331 324 320 315 322 333 324 325 314 318 3 130 97 177 226 252 347 354 339 355 308 38 17 12 249 248 308 177 186 287 267 270 185 232 146 167 182 237 294 276 284
323 320 322 324 320 324 325 334 328 316 320 334 324 327 307 317 276 140 173 233 243 360 7 355 225 239 259 316 17 33 306 14 345 62 328 324 301 243 317 213 219 177 182 341 332 276 262
312 314 318 318 322 323 327 329 327 326 324 335 327 324 327 325 182 56 206 232 259 299 18 301 301 309 313 345 301 329 274 317 5 325 354 334 211 286 20 205 221 271 257 232 233 191 272
302 299 304 310 319 318 322 326 328 326 328 335 353 315 329 343 39 276 225 238 283 263 44 280 231 231 228 208 233 225 233 207 332 14 14 19 326 279 239 243 227 223 262 274 256 266 242
295 298 295 297 300 307 310 314 317 323 326 322 288 258 324 192 219 236 274 283 285 273 265 257 284 212 335 184 273 233 243 156 68 72 68 336 313 308 313 0 17 69 41 330 275 270 259
292 292 293 289 289 297 301 304 308 312 316 279 292 306 315 25 192 252 268 269 259 299 263 224 231 225 208 242 214 256 254 255 46 150 163 129 237 227 264 266 312 289 289 293 283 273 291
288 289 287 286 285 281 288 293 301 301 298 245 201 240 212 219 229 223 223 286 274 295 309 241 253 226 228 278 263 236 239 310 293 272 263 155 237 230 257 272 268 272 277 275 270 269 261
285 282 280 282 277 280 283 285 288 290 290 249 204 228 295 243 247 183 201 207 224 280 251 256 264 298 296 247 246 263 246 210 253 291 188 187 261 274 274 267 270 272 271 268 270 273 269
282 285 288 283 277 274 274 277 272 274 268 254 232 262 157 204 216 163 215 221 217 198 244 233 277 288 286 260 240 227 230 265 244 223 222 220 237 244 271 284 317 288 320 357 341 51 331
287 283 284 284 275 271 270 268 268 256 243 240 256 250 235 240 219 216 212 218 228 230 246 246 243 223 248 48 304 273 255 249 256 248 234 252 256 245 270 46 218 189 143 82 10 76 14
285 284 283 281 277 271 274 272 267 261 252 246 253 240 251 253 228 226 239 234 253 266 255 256 255 208 200 127 237 325 317 356 265 207 216 221 219 254 264 232 341 74 27 342 13 255 15
285 283 281 280 276 273 273 273 265 264 256 249 250 250 244 259 241 222 228 223 220 221 281 252 89 83 189 209 188 203 229 231 288 195 25 96 215 219 26 257 247 136 313 313 273 261 6
288 289 287 282 282 276 275 276 269 263 257 251 251 253 232 256 239 186 210 201 168 190 223 212 187 199 198 202 227 197 244 191 246 200 176 141 153 223 247 258 98 332 310 313 197 326 336
281 281 284 286 284 281 278 281 275 271 257 253 258 254 230 217 234 226 205 184 167 174 222 195 172 219 183 204 189 209 187 218 213 239 174 166 170 211 241 228 244 346 47 64 316 312 325
285 282 282 283 283 280 281 282 275 265 263 259 266 267 236 218 209 205 212 249 197 200 174 196 251 188 213 185 222 153 204 51 170 267 18 124 315 350 4 78 111 20 53 6 339 326 331